User: anonymous   Login
Location: Unspecified
(0.0000°N, 0.0000°E)
Time: 21:45:53
(UTC+00:00)
Language:

Mayak - Orbit

View from above orbital plane
View from above orbital plane
View from above satellite
View from above satellite

Ground track
Ground track

The orbit data is extracted from the following two-line orbital elements,

1 42830U 17042F   21175.44552676  .00000924  00000-0  94087-4 0  9993
2 42830  97.4805  47.2641 0015503 112.7811 247.5049 14.92898268214848
Epoch (UTC): 24 June 2021 10:41:33
Eccentricity: 0.0015503
inclination: 97.4805°
perigee height: 578 km
apogee height: 600 km
right ascension of ascending node: 47.2641°
argument of perigee: 112.7811°
revolutions per day: 14.92898268
mean anomaly at epoch: 247.5049°
orbit number at epoch: 21484

The dashed part of the orbit path shows where the satellite is in the earth's shadow,  

DLR